Location: Arlington
(40.6323°N, 74.1651°W)
Time: 00:59:23
(UTC+00:00)

NOAA 11 - Pass Details

Date: 21 February 2020
Orbit: 833 x 849 km, 98.4° (Epoch: 01 April)

Event Time Altitude Azimuth Distance (km) Brightness Sun altitude
Rises 00:47:52 0° 206° (SSW) 3,383 7.6 -25.5°
Reaches altitude 10° 00:50:57 10° 224° (SW) 2,451 7.0 -26.0°
Maximum altitude 00:54:41 19° 268° (W) 1,911 6.8 -26.7°
Drops below altitude 10° 00:58:26 10° 312° (NW) 2,456 7.3 -27.4°
Sets 01:01:32 0° 330° (NNW) 3,393 7.9 -28.0°
